N364CA KELP-KELP

Flight info

Callsign N364CA
Flight time 2h 17m
Altitude 16000
Route CUZIN/D030 FINAG/D030 HANCH/D030 KELP/ VP269/D030 312460N1055855W/D030
Aircraft B350/L-SBGRW/S

Departure

Time 2026-04-24 01:30
Airport El Paso International Airport (KELP)

Arrival

Time 2026-04-24 03:47
Airport El Paso International Airport (KELP)
Time Latitude Longitude Altitude Speed Heading
2026-04-24 01:15 31.79795 -106.37541 3943 ft 0 kts 264°
2026-04-24 01:25 31.79793 -106.37568 3943 ft 9 kts 271°
2026-04-24 01:25 31.79828 -106.37581 3943 ft 13 kts
2026-04-24 01:25 31.79894 -106.37573 3943 ft 7 kts 31°
2026-04-24 01:25 31.79900 -106.37482 3943 ft 17 kts 94°
2026-04-24 01:26 31.79889 -106.37316 3943 ft 22 kts 92°
2026-04-24 01:26 31.79922 -106.37229 3943 ft 12 kts 30°
2026-04-24 01:26 31.79954 -106.37139 3943 ft 17 kts 92°
2026-04-24 01:26 31.79948 -106.36974 3943 ft 23 kts 95°
2026-04-24 01:27 31.79937 -106.36772 3943 ft 26 kts 92°
2026-04-24 01:27 31.79925 -106.36560 3943 ft 27 kts 92°
2026-04-24 01:27 31.79914 -106.36335 3943 ft 28 kts 93°
2026-04-24 01:27 31.79903 -106.36118 3943 ft 27 kts 95°
2026-04-24 01:28 31.79929 -106.36052 3943 ft 4 kts
2026-04-24 01:28 31.79952 -106.36050 3943 ft 9 kts
2026-04-24 01:28 31.79988 -106.36048 3943 ft 4 kts
2026-04-24 01:28 31.80060 -106.36059 3944 ft 12 kts 315°
2026-04-24 01:29 31.80068 -106.36102 3944 ft 0 kts 275°
2026-04-24 01:29 31.80072 -106.36171 3943 ft 36 kts 275°
2026-04-24 01:29 31.80104 -106.36757 3989 ft 100 kts 281°
2026-04-24 01:29 31.80151 -106.37704 4447 ft 122 kts 278°
2026-04-24 01:30 31.80220 -106.38694 5086 ft 121 kts 273°
2026-04-24 01:30 31.80277 -106.39707 5708 ft 123 kts 274°
2026-04-24 01:30 31.80361 -106.40671 6412 ft 122 kts 277°
2026-04-24 01:30 31.80495 -106.41817 6639 ft 153 kts 278°
2026-04-24 01:31 31.80669 -106.43083 7097 ft 162 kts 278°
2026-04-24 01:31 31.80878 -106.44393 7758 ft 159 kts 281°
2026-04-24 01:31 31.81130 -106.45651 8359 ft 160 kts 281°
2026-04-24 01:31 31.81376 -106.46938 8861 ft 165 kts 279°
2026-04-24 01:32 31.81592 -106.48279 9154 ft 173 kts 276°
2026-04-24 01:32 31.81798 -106.49714 9163 ft 193 kts 276°
2026-04-24 01:32 31.81952 -106.51367 9187 ft 213 kts 274°
2026-04-24 01:32 31.82131 -106.53159 9332 ft 222 kts 275°
2026-04-24 01:33 31.82306 -106.54978 9638 ft 224 kts 269°
2026-04-24 01:33 31.82206 -106.56799 9937 ft 223 kts 263°
2026-04-24 01:33 31.82076 -106.58621 10225 ft 224 kts 266°
2026-04-24 01:33 31.82029 -106.60447 10518 ft 223 kts 268°
2026-04-24 01:34 31.81990 -106.62273 10805 ft 224 kts 268°
2026-04-24 01:34 31.81941 -106.64108 11047 ft 225 kts 268°
2026-04-24 01:34 31.81890 -106.65946 11326 ft 225 kts 268°
2026-04-24 01:34 31.81839 -106.67781 11591 ft 224 kts 268°
2026-04-24 01:35 31.81788 -106.69615 11859 ft 224 kts 268°
2026-04-24 01:35 31.81738 -106.71453 12107 ft 225 kts 268°
2026-04-24 01:35 31.81686 -106.73288 12364 ft 225 kts 268°
2026-04-24 01:35 31.81635 -106.75123 12616 ft 225 kts 268°
2026-04-24 01:36 31.81582 -106.76965 12856 ft 226 kts 269°
2026-04-24 01:36 31.81531 -106.78812 13090 ft 226 kts 269°
2026-04-24 01:36 31.81478 -106.80664 13327 ft 227 kts 269°
2026-04-24 01:36 31.81425 -106.82517 13568 ft 227 kts 269°
2026-04-24 01:37 31.81371 -106.84368 13797 ft 226 kts 269°
2026-04-24 01:37 31.81318 -106.86221 13988 ft 227 kts 269°
2026-04-24 01:37 31.81264 -106.88082 14046 ft 228 kts 269°
2026-04-24 01:37 31.81095 -106.89932 14264 ft 229 kts 256°
2026-04-24 01:38 31.80409 -106.91665 14472 ft 235 kts 240°
2026-04-24 01:38 31.79278 -106.93050 14648 ft 244 kts 223°
2026-04-24 01:38 31.77677 -106.93823 14872 ft 263 kts 192°
2026-04-24 01:38 31.75836 -106.93331 15080 ft 287 kts 157°
2026-04-24 01:39 31.74395 -106.91585 15254 ft 306 kts 121°
2026-04-24 01:39 31.73924 -106.89144 15433 ft 312 kts 86°
2026-04-24 01:39 31.74560 -106.86754 15721 ft 307 kts 54°
2026-04-24 01:39 31.75888 -106.84834 15885 ft 298 kts 30°
2026-04-24 01:40 31.77728 -106.83952 15965 ft 279 kts 355°
2026-04-24 01:40 31.79604 -106.84115 16004 ft 270 kts 336°
2026-04-24 01:40 31.81142 -106.85185 16006 ft 254 kts 305°
2026-04-24 01:40 31.82109 -106.86899 15998 ft 252 kts 294°
2026-04-24 01:41 31.82759 -106.88801 15849 ft 251 kts 280°
2026-04-24 01:41 31.82851 -106.90836 15846 ft 250 kts 270°
2026-04-24 01:41 31.83356 -106.92805 15859 ft 259 kts 301°
2026-04-24 01:41 31.84833 -106.94101 15855 ft 277 kts 330°
2026-04-24 01:42 31.86779 -106.94505 15854 ft 296 kts 355°
2026-04-24 01:42 31.88807 -106.93810 15850 ft 316 kts 23°
2026-04-24 01:42 31.90448 -106.92022 15859 ft 332 kts 52°
2026-04-24 01:42 31.91249 -106.89465 15859 ft 339 kts 82°
2026-04-24 01:43 31.91427 -106.86698 16000 ft 339 kts 87°
2026-04-24 01:43 31.91208 -106.83955 16022 ft 336 kts 111°
2026-04-24 01:43 31.90001 -106.81684 16031 ft 324 kts 142°
2026-04-24 01:43 31.88163 -106.80300 16039 ft 307 kts 168°
2026-04-24 01:44 31.86124 -106.79936 16038 ft 290 kts 192°
2026-04-24 01:44 31.84235 -106.80496 16034 ft 274 kts 213°
2026-04-24 01:44 31.82728 -106.81771 16019 ft 263 kts 232°
2026-04-24 01:44 31.81739 -106.83527 16007 ft 256 kts 250°
2026-04-24 01:45 31.81332 -106.85541 15998 ft 253 kts 267°
2026-04-24 01:45 31.81280 -106.87614 15845 ft 254 kts 268°
2026-04-24 01:45 31.81279 -106.89686 15847 ft 254 kts 277°
2026-04-24 01:45 31.81852 -106.91660 15850 ft 259 kts 294°
2026-04-24 01:46 31.82992 -106.93325 15852 ft 268 kts 313°
2026-04-24 01:46 31.84636 -106.94441 15851 ft 281 kts 334°
2026-04-24 01:46 31.86614 -106.94786 15857 ft 294 kts 349°
2026-04-24 01:46 31.88651 -106.94912 15851 ft 295 kts 353°
2026-04-24 01:47 31.90669 -106.94202 15854 ft 318 kts 26°
2026-04-24 01:47 31.92271 -106.92332 15850 ft 332 kts 53°
2026-04-24 01:47 31.93105 -106.89781 15855 ft 339 kts 80°
2026-04-24 01:47 31.93337 -106.87014 15996 ft 340 kts 84°
2026-04-24 01:48 31.93496 -106.84240 16010 ft 340 kts 88°
2026-04-24 01:48 31.93384 -106.81465 16025 ft 338 kts 105°
2026-04-24 01:48 31.92441 -106.78976 16039 ft 331 kts 130°
2026-04-24 01:48 31.90851 -106.77117 16036 ft 318 kts 153°
2026-04-24 01:49 31.88887 -106.76090 16036 ft 303 kts 175°
2026-04-24 01:49 31.86844 -106.75922 16038 ft 288 kts 194°
2026-04-24 01:49 31.84956 -106.76520 16035 ft 276 kts 212°
2026-04-24 01:49 31.83391 -106.77730 16037 ft 265 kts 229°
2026-04-24 01:50 31.82247 -106.79385 16033 ft 258 kts 244°
2026-04-24 01:50 31.81581 -106.81320 16020 ft 254 kts 258°
2026-04-24 01:50 31.81400 -106.83381 16009 ft 254 kts 269°
2026-04-24 01:50 31.81345 -106.85452 15997 ft 254 kts 268°
2026-04-24 01:51 31.81275 -106.87529 15987 ft 254 kts 268°
2026-04-24 01:51 31.81259 -106.89604 15846 ft 254 kts 274°
2026-04-24 01:51 31.81711 -106.91623 15847 ft 257 kts 289°
2026-04-24 01:51 31.82650 -106.93432 15854 ft 264 kts 305°
2026-04-24 01:52 31.84048 -106.94873 15853 ft 273 kts 321°
2026-04-24 01:52 31.85825 -106.95765 15848 ft 285 kts 338°
2026-04-24 01:52 31.87840 -106.95941 15852 ft 299 kts 357°
2026-04-24 01:52 31.89886 -106.95272 15852 ft 314 kts 19°
2026-04-24 01:53 31.91680 -106.93718 15852 ft 328 kts 42°
2026-04-24 01:53 31.92899 -106.91419 15856 ft 337 kts 67°
2026-04-24 01:53 31.93323 -106.88706 15857 ft 340 kts 87°
2026-04-24 01:53 31.93405 -106.85918 16001 ft 340 kts 88°
2026-04-24 01:54 31.93479 -106.83131 16015 ft 341 kts 87°
2026-04-24 01:54 31.93581 -106.80349 16029 ft 340 kts 88°
2026-04-24 01:54 31.93500 -106.77576 16036 ft 339 kts 104°
2026-04-24 01:54 31.92571 -106.75075 16036 ft 331 kts 129°
2026-04-24 01:55 31.90982 -106.73202 16038 ft 318 kts 153°
2026-04-24 01:55 31.89022 -106.72167 16035 ft 303 kts 175°
2026-04-24 01:55 31.86979 -106.71992 16036 ft 288 kts 194°
2026-04-24 01:55 31.85091 -106.72584 16039 ft 276 kts 212°
2026-04-24 01:56 31.83522 -106.73790 16042 ft 266 kts 229°
2026-04-24 01:56 31.82372 -106.75441 16036 ft 258 kts 244°
2026-04-24 01:56 31.81700 -106.77373 16035 ft 255 kts 258°
2026-04-24 01:56 31.81513 -106.79432 16028 ft 254 kts 269°
2026-04-24 01:57 31.81457 -106.81506 16019 ft 254 kts 268°
2026-04-24 01:57 31.81390 -106.83577 16017 ft 254 kts 268°
2026-04-24 01:57 31.81351 -106.84977 16001 ft 254 kts 268°
2026-04-24 01:57 31.81293 -106.87051 15990 ft 254 kts 268°
2026-04-24 01:58 31.81244 -106.89124 15845 ft 254 kts 270°
2026-04-24 01:58 31.81563 -106.91164 15852 ft 257 kts 287°
2026-04-24 01:58 31.82385 -106.93040 15855 ft 262 kts 301°
2026-04-24 01:58 31.83680 -106.94585 15855 ft 270 kts 317°
2026-04-24 01:59 31.85374 -106.95625 15848 ft 282 kts 334°
2026-04-24 01:59 31.87349 -106.95992 15851 ft 295 kts 353°
2026-04-24 01:59 31.89408 -106.95543 15860 ft 310 kts 13°
2026-04-24 01:59 31.91296 -106.94207 15853 ft 325 kts 36°
2026-04-24 02:00 31.92689 -106.92077 15852 ft 335 kts 60°
2026-04-24 02:00 31.93317 -106.89430 15862 ft 340 kts 84°
2026-04-24 02:00 31.93423 -106.86643 15999 ft 341 kts 88°
2026-04-24 02:00 31.93482 -106.83888 16011 ft 341 kts 88°
2026-04-24 02:01 31.93547 -106.81098 16023 ft 341 kts 88°
2026-04-24 02:01 31.93574 -106.78276 16036 ft 340 kts 96°
2026-04-24 02:01 31.92867 -106.75665 16035 ft 334 kts 123°
2026-04-24 02:01 31.91619 -106.73377 16040 ft 334 kts 121°
2026-04-24 02:02 31.90762 -106.70824 16039 ft 338 kts 107°
2026-04-24 02:02 31.89995 -106.68231 16050 ft 332 kts 126°
2026-04-24 02:02 31.88399 -106.66402 16055 ft 314 kts 159°
2026-04-24 02:02 31.86377 -106.65818 16047 ft 291 kts 191°
2026-04-24 02:03 31.83189 -106.67977 16042 ft 263 kts 234°
2026-04-24 02:03 31.82205 -106.69756 16049 ft 258 kts 248°
2026-04-24 02:03 31.81668 -106.71745 16037 ft 254 kts 262°
2026-04-24 02:04 31.81582 -106.73817 16040 ft 254 kts 271°
2026-04-24 02:04 31.81616 -106.75892 16044 ft 254 kts 269°
2026-04-24 02:04 31.81564 -106.77966 16043 ft 254 kts 267°
2026-04-24 02:04 31.81488 -106.80040 16034 ft 254 kts 268°
2026-04-24 02:05 31.81427 -106.82112 16024 ft 253 kts 268°
2026-04-24 02:05 31.81369 -106.84184 16012 ft 253 kts 268°
2026-04-24 02:05 31.81311 -106.86255 16001 ft 253 kts 268°
2026-04-24 02:05 31.81250 -106.88323 15847 ft 254 kts 268°
2026-04-24 02:06 31.81363 -106.90386 15849 ft 255 kts 281°
2026-04-24 02:06 31.81998 -106.92337 15850 ft 259 kts 295°
2026-04-24 02:06 31.83113 -106.94025 15850 ft 266 kts 310°
2026-04-24 02:06 31.84659 -106.95282 15850 ft 277 kts 327°
2026-04-24 02:07 31.86539 -106.95933 15850 ft 289 kts 345°
2026-04-24 02:07 31.88588 -106.95819 15850 ft 304 kts
2026-04-24 02:07 31.90575 -106.94836 15850 ft 319 kts 26°
2026-04-24 02:07 31.92195 -106.93003 15852 ft 331 kts 50°
2026-04-24 02:08 31.93153 -106.90512 15861 ft 338 kts 75°
2026-04-24 02:08 31.93377 -106.87748 15857 ft 340 kts 87°
2026-04-24 02:08 31.93443 -106.84967 16012 ft 340 kts 88°
2026-04-24 02:08 31.93497 -106.82181 16029 ft 340 kts 88°
2026-04-24 02:09 31.93577 -106.79400 16043 ft 340 kts 87°
2026-04-24 02:09 31.93663 -106.76618 16046 ft 340 kts 88°
2026-04-24 02:09 31.93739 -106.73834 16045 ft 340 kts 88°
2026-04-24 02:09 31.93504 -106.71086 16043 ft 337 kts 111°
2026-04-24 02:10 31.92400 -106.68699 16040 ft 329 kts 134°
2026-04-24 02:10 31.90693 -106.67008 16046 ft 316 kts 158°
2026-04-24 02:10 31.88681 -106.66179 16049 ft 301 kts 179°
2026-04-24 02:10 31.86652 -106.66200 16051 ft 286 kts 199°
2026-04-24 02:11 31.84824 -106.66958 16044 ft 274 kts 216°
2026-04-24 02:11 31.83329 -106.68316 16049 ft 265 kts 232°
2026-04-24 02:11 31.82308 -106.70043 16041 ft 258 kts 247°
2026-04-24 02:11 31.81760 -106.72058 16041 ft 255 kts 262°
2026-04-24 02:12 31.81738 -106.74125 16045 ft 254 kts 280°
2026-04-24 02:12 31.82624 -106.75928 16045 ft 266 kts 313°
2026-04-24 02:12 31.84344 -106.76856 16044 ft 287 kts 344°
2026-04-24 02:12 31.86385 -106.76538 16045 ft 310 kts 15°
2026-04-24 02:13 31.88138 -106.74970 16044 ft 329 kts 47°
2026-04-24 02:13 31.89099 -106.72508 16044 ft 338 kts 78°
2026-04-24 02:13 31.89138 -106.69741 16054 ft 339 kts 95°
2026-04-24 02:13 31.88858 -106.66981 16051 ft 339 kts 99°
2026-04-24 02:14 31.88499 -106.64243 16052 ft 338 kts 104°
2026-04-24 02:14 31.87512 -106.61809 16048 ft 327 kts 136°
2026-04-24 02:14 31.85728 -106.60320 16048 ft 308 kts 168°
2026-04-24 02:14 31.83702 -106.60108 16042 ft 284 kts 200°
2026-04-24 02:15 31.82038 -106.61126 16040 ft 264 kts 231°
2026-04-24 02:15 31.81070 -106.62892 16047 ft 255 kts 254°
2026-04-24 02:15 31.80722 -106.64927 16045 ft 254 kts 266°
2026-04-24 02:15 31.80869 -106.66998 16045 ft 255 kts 281°
2026-04-24 02:16 31.81345 -106.69013 16042 ft 256 kts 283°
2026-04-24 02:16 31.81804 -106.71037 16033 ft 256 kts 282°
2026-04-24 02:16 31.82432 -106.72995 16040 ft 259 kts 296°
2026-04-24 02:16 31.83557 -106.74670 16037 ft 266 kts 310°
2026-04-24 02:17 31.85028 -106.76024 16043 ft 269 kts 316°
2026-04-24 02:17 31.86509 -106.77368 16047 ft 269 kts 315°
2026-04-24 02:17 31.87989 -106.78715 16050 ft 269 kts 315°
2026-04-24 02:17 31.89476 -106.80052 16044 ft 269 kts 315°
2026-04-24 02:18 31.90962 -106.81392 16039 ft 269 kts 315°
2026-04-24 02:18 31.92447 -106.82734 16034 ft 269 kts 315°
2026-04-24 02:18 31.93925 -106.84080 16020 ft 268 kts 313°
2026-04-24 02:18 31.95114 -106.85704 16003 ft 259 kts 296°
2026-04-24 02:19 31.95823 -106.87626 15881 ft 255 kts 282°
2026-04-24 02:19 31.96028 -106.89682 15886 ft 253 kts 268°
2026-04-24 02:19 31.95620 -106.91687 15887 ft 258 kts 243°
2026-04-24 02:19 31.94247 -106.93099 15878 ft 276 kts 210°
2026-04-24 02:20 31.92283 -106.93355 15867 ft 300 kts 177°
2026-04-24 02:20 31.90350 -106.92275 15867 ft 322 kts 145°
2026-04-24 02:20 31.88843 -106.90281 15855 ft 329 kts 132°
2026-04-24 02:20 31.87502 -106.88088 15848 ft 331 kts 129°
2026-04-24 02:21 31.86331 -106.85748 16023 ft 335 kts 118°
2026-04-24 02:21 31.85404 -106.83228 16039 ft 336 kts 115°
2026-04-24 02:21 31.84531 -106.80674 16056 ft 336 kts 114°
2026-04-24 02:21 31.83673 -106.78115 16062 ft 337 kts 114°
2026-04-24 02:22 31.82818 -106.75551 16053 ft 337 kts 114°
2026-04-24 02:22 31.82002 -106.72967 16056 ft 338 kts 109°
2026-04-24 02:22 31.81623 -106.70243 16058 ft 340 kts 86°
2026-04-24 02:22 31.82146 -106.67553 16053 ft 336 kts 63°
2026-04-24 02:23 31.83423 -106.65313 16054 ft 326 kts 39°
2026-04-24 02:23 31.85229 -106.63811 16056 ft 312 kts 17°
2026-04-24 02:23 31.87269 -106.63168 16057 ft 297 kts 356°
2026-04-24 02:23 31.89289 -106.63295 16053 ft 289 kts 346°
2026-04-24 02:24 31.91320 -106.62945 16059 ft 310 kts 17°
2026-04-24 02:24 31.93020 -106.61302 16052 ft 328 kts 49°
2026-04-24 02:24 31.94075 -106.58891 16035 ft 336 kts 70°
2026-04-24 02:24 31.94382 -106.56163 16013 ft 338 kts 93°
2026-04-24 02:25 31.93889 -106.53478 16008 ft 335 kts 116°
2026-04-24 02:25 31.92668 -106.51194 15981 ft 327 kts 138°
2026-04-24 02:25 31.90902 -106.49606 16005 ft 315 kts 158°
2026-04-24 02:25 31.89133 -106.48048 16018 ft 313 kts 137°
2026-04-24 02:26 31.87810 -106.46058 16020 ft 304 kts 132°
2026-04-24 02:26 31.86473 -106.44175 16006 ft 295 kts 140°
2026-04-24 02:26 31.85019 -106.42546 16000 ft 293 kts 144°
2026-04-24 02:26 31.83517 -106.40908 16000 ft 296 kts 142°
2026-04-24 02:27 31.82108 -106.39070 16017 ft 305 kts 126°
2026-04-24 02:27 31.81489 -106.36649 16021 ft 318 kts 90°
2026-04-24 02:27 31.81960 -106.34157 16029 ft 319 kts 57°
2026-04-24 02:27 31.83428 -106.32249 16029 ft 308 kts 25°
2026-04-24 02:28 31.85379 -106.31454 16024 ft 291 kts 356°
2026-04-24 02:28 31.87368 -106.31554 16028 ft 284 kts 344°
2026-04-24 02:28 31.89125 -106.32335 16021 ft 269 kts 320°
2026-04-24 02:28 31.90487 -106.33819 16024 ft 261 kts 301°
2026-04-24 02:29 31.91078 -106.35036 16016 ft 257 kts 289°
2026-04-24 02:29 31.91519 -106.37735 16016 ft 254 kts 272°
2026-04-24 02:29 31.91590 -106.39139 16018 ft 254 kts 273°
2026-04-24 02:29 31.91553 -106.41212 16024 ft 255 kts 259°
2026-04-24 02:30 31.90926 -106.43168 16018 ft 259 kts 244°
2026-04-24 02:30 31.89767 -106.44823 16016 ft 267 kts 226°
2026-04-24 02:30 31.88147 -106.45963 16021 ft 279 kts 207°
2026-04-24 02:30 31.86202 -106.46378 16020 ft 292 kts 187°
2026-04-24 02:31 31.84165 -106.45897 16019 ft 309 kts 164°
2026-04-24 02:31 31.82354 -106.44454 16020 ft 324 kts 139°
2026-04-24 02:31 31.81144 -106.42183 16019 ft 335 kts 111°
2026-04-24 02:31 31.80770 -106.39483 16018 ft 337 kts 93°
2026-04-24 02:32 31.80723 -106.36729 16019 ft 337 kts 84°
2026-04-24 02:32 31.81439 -106.34154 16025 ft 330 kts 53°
2026-04-24 02:32 31.82953 -106.32203 16028 ft 318 kts 28°
2026-04-24 02:32 31.84917 -106.31164 16019 ft 303 kts
2026-04-24 02:33 31.86953 -106.31078 16018 ft 287 kts 342°
2026-04-24 02:33 31.88788 -106.31824 16017 ft 274 kts 323°
2026-04-24 02:33 31.90231 -106.33213 16020 ft 265 kts 305°
2026-04-24 02:33 31.91168 -106.35036 16015 ft 259 kts 288°
2026-04-24 02:34 31.91540 -106.37080 16021 ft 255 kts 272°
2026-04-24 02:34 31.91604 -106.39172 16018 ft 255 kts 272°
2026-04-24 02:34 31.91547 -106.41250 16020 ft 256 kts 259°
2026-04-24 02:34 31.90906 -106.43207 16015 ft 259 kts 243°
2026-04-24 02:35 31.89739 -106.44851 16022 ft 268 kts 226°
2026-04-24 02:35 31.88108 -106.45980 16017 ft 280 kts 207°
2026-04-24 02:35 31.86155 -106.46378 16020 ft 293 kts 186°
2026-04-24 02:35 31.84114 -106.45871 16019 ft 309 kts 163°
2026-04-24 02:36 31.82313 -106.44404 16022 ft 325 kts 138°
2026-04-24 02:36 31.81123 -106.42114 16023 ft 335 kts 110°
2026-04-24 02:36 31.80766 -106.39407 16019 ft 337 kts 93°
2026-04-24 02:36 31.80729 -106.36654 16019 ft 337 kts 83°
2026-04-24 02:37 31.81470 -106.34094 16024 ft 330 kts 53°
2026-04-24 02:37 31.83000 -106.32164 16030 ft 318 kts 27°
2026-04-24 02:37 31.84966 -106.31151 16022 ft 302 kts
2026-04-24 02:37 31.87002 -106.31087 16018 ft 287 kts 342°
2026-04-24 02:38 31.88829 -106.31852 16024 ft 274 kts 322°
2026-04-24 02:38 31.90261 -106.33253 16025 ft 265 kts 304°
2026-04-24 02:38 31.91184 -106.35085 16014 ft 259 kts 288°
2026-04-24 02:38 31.91542 -106.37134 16019 ft 256 kts 272°
2026-04-24 02:39 31.91605 -106.39223 16018 ft 255 kts 272°
2026-04-24 02:39 31.91538 -106.41304 16025 ft 256 kts 258°
2026-04-24 02:39 31.90881 -106.43257 16018 ft 260 kts 243°
2026-04-24 02:39 31.89698 -106.44892 16017 ft 268 kts 225°
2026-04-24 02:40 31.87977 -106.45838 16024 ft 288 kts 195°
2026-04-24 02:40 31.85943 -106.45502 16024 ft 311 kts 163°
2026-04-24 02:40 31.84223 -106.43880 16028 ft 328 kts 131°
2026-04-24 02:40 31.83029 -106.41572 16016 ft 332 kts 122°
2026-04-24 02:41 31.81879 -106.39214 16012 ft 330 kts 128°
2026-04-24 02:41 31.80250 -106.37444 16010 ft 313 kts 160°
2026-04-24 02:41 31.78216 -106.36807 16015 ft 299 kts 181°
2026-04-24 02:41 31.76149 -106.36475 16023 ft 307 kts 169°
2026-04-24 02:42 31.74319 -106.35079 16025 ft 327 kts 135°
2026-04-24 02:42 31.73288 -106.32674 16022 ft 337 kts 103°
2026-04-24 02:42 31.73101 -106.29928 16011 ft 338 kts 89°
2026-04-24 02:42 31.73147 -106.27162 16003 ft 338 kts 87°
2026-04-24 02:43 31.72969 -106.24425 15984 ft 337 kts 109°
2026-04-24 02:43 31.71789 -106.22130 15971 ft 325 kts 142°
2026-04-24 02:43 31.69895 -106.20859 15960 ft 305 kts 174°
2026-04-24 02:43 31.67871 -106.20887 15952 ft 283 kts 205°
2026-04-24 02:44 31.66313 -106.22097 15975 ft 262 kts 237°
2026-04-24 02:44 31.65682 -106.24017 16017 ft 253 kts 268°
2026-04-24 02:44 31.66110 -106.26011 16022 ft 257 kts 294°
2026-04-24 02:44 31.67039 -106.27820 16035 ft 260 kts 299°
2026-04-24 02:45 31.68149 -106.29507 16045 ft 266 kts 313°
2026-04-24 02:45 31.69759 -106.30650 16059 ft 275 kts 327°
2026-04-24 02:45 31.71517 -106.31578 16068 ft 277 kts 329°
2026-04-24 02:45 31.73294 -106.32462 16076 ft 277 kts 330°
2026-04-24 02:46 31.75076 -106.33336 16080 ft 278 kts 330°
2026-04-24 02:46 31.76863 -106.34204 16077 ft 278 kts 330°
2026-04-24 02:46 31.78648 -106.35071 16076 ft 277 kts 330°
2026-04-24 02:46 31.80430 -106.35944 16078 ft 277 kts 329°
2026-04-24 02:47 31.82198 -106.36837 16087 ft 277 kts 329°
2026-04-24 02:47 31.83975 -106.37734 16077 ft 278 kts 329°
2026-04-24 02:47 31.85587 -106.38880 16087 ft 264 kts 306°
2026-04-24 02:47 31.86310 -106.40766 16091 ft 254 kts 273°
2026-04-24 02:48 31.85883 -106.42759 16090 ft 260 kts 240°
2026-04-24 02:48 31.84455 -106.44112 16086 ft 278 kts 208°
2026-04-24 02:48 31.82487 -106.44446 16077 ft 293 kts 188°
2026-04-24 02:48 31.80437 -106.44279 16066 ft 303 kts 173°
2026-04-24 02:49 31.78545 -106.43058 16084 ft 324 kts 140°
2026-04-24 02:49 31.77360 -106.40772 16084 ft 336 kts 108°
2026-04-24 02:49 31.76958 -106.38066 16074 ft 336 kts 105°
2026-04-24 02:49 31.75891 -106.35691 16076 ft 326 kts 139°
2026-04-24 02:50 31.74045 -106.34320 16078 ft 308 kts 171°
2026-04-24 02:50 31.72009 -106.34242 16079 ft 285 kts 202°
2026-04-24 02:50 31.70229 -106.35133 16073 ft 274 kts 217°
2026-04-24 02:50 31.69979 -106.36787 15258 ft 276 kts 324°
2026-04-24 02:51 31.72098 -106.37220 14792 ft 298 kts 345°
2026-04-24 02:51 31.74045 -106.37471 15486 ft 282 kts 352°
2026-04-24 02:51 31.75981 -106.36858 15614 ft 302 kts 24°
2026-04-24 02:51 31.77496 -106.35040 15743 ft 318 kts 57°
2026-04-24 02:52 31.78074 -106.32527 15866 ft 325 kts 89°
2026-04-24 02:52 31.77554 -106.29983 15989 ft 320 kts 122°
2026-04-24 02:52 31.76102 -106.28105 16064 ft 307 kts 154°
2026-04-24 02:52 31.74144 -106.27312 15807 ft 299 kts 183°
2026-04-24 02:53 31.72132 -106.27718 15120 ft 293 kts 213°
2026-04-24 02:53 31.70561 -106.29179 14446 ft 290 kts 233°
2026-04-24 02:53 31.69240 -106.30988 13789 ft 294 kts 234°
2026-04-24 02:53 31.67832 -106.32758 13062 ft 300 kts 229°
2026-04-24 02:54 31.66752 -106.34677 12687 ft 275 kts 277°
2026-04-24 02:54 31.68018 -106.36375 11120 ft 313 kts 330°
2026-04-24 02:54 31.70271 -106.36794 9982 ft 332 kts 352°
2026-04-24 02:54 31.72493 -106.37195 9840 ft 299 kts 334°
2026-04-24 02:55 31.74107 -106.38402 9968 ft 271 kts 316°
2026-04-24 02:55 31.75579 -106.39900 8786 ft 290 kts 314°
2026-04-24 02:55 31.77098 -106.41542 7875 ft 295 kts 314°
2026-04-24 02:55 31.78308 -106.43346 7742 ft 264 kts 290°
2026-04-24 02:56 31.78401 -106.45121 7903 ft 185 kts 252°
2026-04-24 02:56 31.77902 -106.46258 8020 ft 130 kts 266°
2026-04-24 02:56 31.78317 -106.46929 8138 ft 107 kts 347°
2026-04-24 02:56 31.78988 -106.46769 8239 ft 95 kts 354°
2026-04-24 02:57 31.79758 -106.46658 8374 ft 130 kts 357°
2026-04-24 02:57 31.80753 -106.46514 8532 ft 157 kts 357°
2026-04-24 02:57 31.81897 -106.46361 8680 ft 173 kts 357°
2026-04-24 02:57 31.83128 -106.46202 8809 ft 181 kts 357°
2026-04-24 02:58 31.84418 -106.46047 8959 ft 186 kts 358°
2026-04-24 02:58 31.85719 -106.45892 9104 ft 189 kts 358°
2026-04-24 02:58 31.87022 -106.45738 9236 ft 197 kts 357°
2026-04-24 02:58 31.88461 -106.45854 9343 ft 207 kts 326°
2026-04-24 02:59 31.89364 -106.47037 9496 ft 196 kts 281°
2026-04-24 02:59 31.89211 -106.48588 9653 ft 197 kts 239°
2026-04-24 02:59 31.88076 -106.49542 9812 ft 215 kts 201°
2026-04-24 02:59 31.86553 -106.49845 9938 ft 227 kts 193°
2026-04-24 03:00 31.84946 -106.50043 10047 ft 237 kts 192°
2026-04-24 03:00 31.83282 -106.50215 10165 ft 243 kts 191°
2026-04-24 03:00 31.82162 -106.50330 10236 ft 245 kts 192°
2026-04-24 03:00 31.79855 -106.50582 10248 ft 252 kts 191°
2026-04-24 03:01 31.78092 -106.50774 10265 ft 256 kts 191°
2026-04-24 03:01 31.76300 -106.50895 10267 ft 263 kts 179°
2026-04-24 03:01 31.75127 -106.50456 10276 ft 275 kts 155°
2026-04-24 03:01 31.73801 -106.48797 10277 ft 289 kts 118°
2026-04-24 03:02 31.73447 -106.46482 10286 ft 293 kts 82°
2026-04-24 03:02 31.74092 -106.44230 10295 ft 291 kts 61°
2026-04-24 03:02 31.75040 -106.42133 10297 ft 291 kts 58°
2026-04-24 03:02 31.76028 -106.40050 10296 ft 292 kts 58°
2026-04-24 03:03 31.77062 -106.37999 10294 ft 290 kts 49°
2026-04-24 03:03 31.78610 -106.36616 10298 ft 277 kts 15°
2026-04-24 03:03 31.80451 -106.36035 10297 ft 273 kts
2026-04-24 03:03 31.81759 -106.35727 10297 ft 272 kts
2026-04-24 03:04 31.83450 -106.35351 10276 ft 275 kts
2026-04-24 03:04 31.85333 -106.34939 10279 ft 275 kts
2026-04-24 03:04 31.87221 -106.34535 10275 ft 276 kts
2026-04-24 03:04 31.89108 -106.34123 10277 ft 276 kts
2026-04-24 03:05 31.90998 -106.33716 10276 ft 276 kts
2026-04-24 03:05 31.92885 -106.33304 10277 ft 276 kts
2026-04-24 03:05 31.94775 -106.32891 10267 ft 276 kts
2026-04-24 03:05 31.96664 -106.32473 10257 ft 276 kts
2026-04-24 03:06 31.98556 -106.32052 10243 ft 277 kts
2026-04-24 03:06 32.00445 -106.31582 10254 ft 278 kts
2026-04-24 03:06 32.02327 -106.31048 10240 ft 279 kts
2026-04-24 03:06 32.04201 -106.30453 10228 ft 279 kts
2026-04-24 03:07 32.06062 -106.29800 10214 ft 279 kts 11°
2026-04-24 03:07 32.07914 -106.29087 10199 ft 280 kts 13°
2026-04-24 03:07 32.09754 -106.28314 10187 ft 281 kts 13°
2026-04-24 03:07 32.11584 -106.27483 10173 ft 281 kts 14°
2026-04-24 03:08 32.13390 -106.26598 10159 ft 282 kts 16°
2026-04-24 03:08 32.16958 -106.24652 10133 ft 284 kts 19°
2026-04-24 03:08 32.18717 -106.23595 10119 ft 284 kts 21°
2026-04-24 03:09 32.20298 -106.22169 10119 ft 296 kts 48°
2026-04-24 03:09 32.21217 -106.19974 10120 ft 303 kts 74°
2026-04-24 03:09 32.21283 -106.17495 10118 ft 305 kts 103°
2026-04-24 03:09 32.20472 -106.15236 10123 ft 297 kts 130°
2026-04-24 03:10 32.18994 -106.13624 10121 ft 285 kts 156°
2026-04-24 03:10 32.17176 -106.12873 10121 ft 271 kts 180°
2026-04-24 03:10 32.15322 -106.12863 10122 ft 266 kts 189°
2026-04-24 03:10 32.13475 -106.12936 10124 ft 266 kts 189°
2026-04-24 03:11 32.11628 -106.13015 10135 ft 265 kts 189°
2026-04-24 03:11 32.09786 -106.13097 10138 ft 265 kts 188°
2026-04-24 03:11 32.07946 -106.13172 10148 ft 264 kts 188°
2026-04-24 03:11 32.06089 -106.13250 10158 ft 263 kts 188°
2026-04-24 03:12 32.04263 -106.13325 10170 ft 263 kts 188°
2026-04-24 03:12 32.02438 -106.13400 10179 ft 262 kts 188°
2026-04-24 03:12 32.00616 -106.13476 10184 ft 262 kts 188°
2026-04-24 03:12 31.98792 -106.13550 10192 ft 262 kts 188°
2026-04-24 03:13 31.96968 -106.13625 10201 ft 262 kts 188°
2026-04-24 03:13 31.95144 -106.13700 10208 ft 263 kts 188°
2026-04-24 03:13 31.93318 -106.13776 10214 ft 263 kts 188°
2026-04-24 03:13 31.91490 -106.13851 10216 ft 263 kts 188°
2026-04-24 03:14 31.89656 -106.13927 10212 ft 263 kts 188°
2026-04-24 03:14 31.87825 -106.14003 10218 ft 264 kts 188°
2026-04-24 03:14 31.85991 -106.14069 10219 ft 263 kts 188°
2026-04-24 03:14 31.84162 -106.14153 10205 ft 263 kts 188°
2026-04-24 03:15 31.82327 -106.14235 10206 ft 264 kts 187°
2026-04-24 03:15 31.80487 -106.14303 10207 ft 265 kts 188°
2026-04-24 03:15 31.78641 -106.14377 10207 ft 265 kts 188°
2026-04-24 03:15 31.76786 -106.14454 10056 ft 271 kts 188°
2026-04-24 03:16 31.74877 -106.14534 9804 ft 278 kts 187°
2026-04-24 03:16 31.72933 -106.14614 9527 ft 281 kts 187°
2026-04-24 03:16 31.70966 -106.14683 9246 ft 284 kts 187°
2026-04-24 03:16 31.68988 -106.14769 8967 ft 285 kts 187°
2026-04-24 03:17 31.67005 -106.14855 8690 ft 286 kts 187°
2026-04-24 03:17 31.65014 -106.14937 8412 ft 287 kts 187°
2026-04-24 03:17 31.63021 -106.15019 8169 ft 287 kts 186°
2026-04-24 03:17 31.61025 -106.15097 7903 ft 287 kts 187°
2026-04-24 03:18 31.59032 -106.15183 7636 ft 285 kts 186°
2026-04-24 03:18 31.57077 -106.15264 7359 ft 278 kts 187°
2026-04-24 03:18 31.55157 -106.15342 7093 ft 272 kts 187°
2026-04-24 03:18 31.53290 -106.15418 6832 ft 268 kts 187°
2026-04-24 03:19 31.51428 -106.15438 6564 ft 270 kts 178°
2026-04-24 03:19 31.49696 -106.14540 6309 ft 282 kts 141°
2026-04-24 03:19 31.48666 -106.12566 6073 ft 285 kts 104°
2026-04-24 03:19 31.48744 -106.10315 5994 ft 274 kts 66°
2026-04-24 03:20 31.49810 -106.08585 5959 ft 256 kts 30°
2026-04-24 03:20 31.51402 -106.07976 5956 ft 235 kts 352°
2026-04-24 03:20 31.52887 -106.08537 5958 ft 221 kts 326°
2026-04-24 03:20 31.54225 -106.09410 5956 ft 220 kts 325°
2026-04-24 03:21 31.55540 -106.10309 5965 ft 217 kts 325°
2026-04-24 03:21 31.56680 -106.11415 5980 ft 211 kts 307°
2026-04-24 03:21 31.57562 -106.12785 5989 ft 210 kts 303°
2026-04-24 03:21 31.58408 -106.14166 6004 ft 208 kts 304°
2026-04-24 03:22 31.59243 -106.15561 6008 ft 209 kts 303°
2026-04-24 03:22 31.60068 -106.16967 6014 ft 210 kts 303°
2026-04-24 03:22 31.60898 -106.18382 6027 ft 211 kts 303°
2026-04-24 03:22 31.61740 -106.19841 6039 ft 222 kts 303°
2026-04-24 03:23 31.62614 -106.21379 6054 ft 231 kts 303°
2026-04-24 03:23 31.63514 -106.22969 6065 ft 237 kts 303°
2026-04-24 03:23 31.64436 -106.24593 6021 ft 241 kts 303°
2026-04-24 03:23 31.65364 -106.26239 6021 ft 242 kts 303°
2026-04-24 03:24 31.66292 -106.27893 6045 ft 243 kts 303°
2026-04-24 03:24 31.67226 -106.29550 6055 ft 243 kts 303°
2026-04-24 03:24 31.68161 -106.31209 6066 ft 244 kts 303°
2026-04-24 03:24 31.69208 -106.32758 6077 ft 244 kts 320°
2026-04-24 03:25 31.70712 -106.33700 6087 ft 248 kts 339°
2026-04-24 03:25 31.72411 -106.34107 6097 ft 251 kts 348°
2026-04-24 03:25 31.74146 -106.34364 6091 ft 252 kts 349°
2026-04-24 03:25 31.75884 -106.34600 6095 ft 252 kts 350°
2026-04-24 03:26 31.77628 -106.34829 6090 ft 253 kts 348°
2026-04-24 03:26 31.79385 -106.35015 6092 ft 253 kts 346°
2026-04-24 03:26 31.80925 -106.35868 6097 ft 245 kts 318°
2026-04-24 03:26 31.82179 -106.37222 6097 ft 245 kts 314°
2026-04-24 03:27 31.83182 -106.38827 6107 ft 242 kts 288°
2026-04-24 03:27 31.83135 -106.40773 6109 ft 246 kts 250°
2026-04-24 03:27 31.82011 -106.42303 6099 ft 257 kts 214°
2026-04-24 03:27 31.80246 -106.42767 6095 ft 270 kts 180°
2026-04-24 03:28 31.78384 -106.42390 6096 ft 273 kts 171°
2026-04-24 03:28 31.76571 -106.41839 6095 ft 261 kts 160°
2026-04-24 03:28 31.75193 -106.40558 6095 ft 249 kts 132°
2026-04-24 03:28 31.74163 -106.38980 6078 ft 238 kts 128°
2026-04-24 03:29 31.73208 -106.37438 6076 ft 229 kts 127°
2026-04-24 03:29 31.72289 -106.35945 6075 ft 222 kts 127°
2026-04-24 03:29 31.71396 -106.34486 6081 ft 218 kts 126°
2026-04-24 03:29 31.70502 -106.33059 6068 ft 216 kts 127°
2026-04-24 03:30 31.69611 -106.31645 6054 ft 215 kts 127°
2026-04-24 03:30 31.68730 -106.30236 6051 ft 214 kts 127°
2026-04-24 03:30 31.67853 -106.28826 6040 ft 214 kts 127°
2026-04-24 03:30 31.66975 -106.27418 6033 ft 214 kts 127°
2026-04-24 03:31 31.66094 -106.26014 6017 ft 214 kts 127°
2026-04-24 03:31 31.65209 -106.24610 6009 ft 214 kts 127°
2026-04-24 03:31 31.64316 -106.23210 5999 ft 215 kts 127°
2026-04-24 03:31 31.63421 -106.21804 6037 ft 215 kts 127°
2026-04-24 03:32 31.62526 -106.20398 6029 ft 216 kts 127°
2026-04-24 03:32 31.61624 -106.18986 6024 ft 216 kts 127°
2026-04-24 03:32 31.60725 -106.17575 6013 ft 216 kts 127°
2026-04-24 03:32 31.59836 -106.16167 5997 ft 214 kts 127°
2026-04-24 03:33 31.58956 -106.14767 5988 ft 212 kts 127°
2026-04-24 03:33 31.58085 -106.13370 5972 ft 212 kts 128°
2026-04-24 03:33 31.57238 -106.11957 5966 ft 212 kts 127°
2026-04-24 03:33 31.56400 -106.10533 5961 ft 212 kts 127°
2026-04-24 03:34 31.55561 -106.09108 5940 ft 213 kts 127°
2026-04-24 03:34 31.54715 -106.07684 5935 ft 213 kts 127°
2026-04-24 03:34 31.53860 -106.06261 5925 ft 214 kts 127°
2026-04-24 03:34 31.52996 -106.04833 5920 ft 215 kts 127°
2026-04-24 03:35 31.52414 -106.03871 5902 ft 215 kts 127°
2026-04-24 03:35 31.51558 -106.02434 5895 ft 215 kts 127°
2026-04-24 03:35 31.50718 -106.00990 5898 ft 215 kts 127°
2026-04-24 03:35 31.49877 -105.99539 5906 ft 215 kts 127°
2026-04-24 03:36 31.49245 -105.97967 5919 ft 216 kts 94°
2026-04-24 03:36 31.49640 -105.96356 5919 ft 204 kts 43°
2026-04-24 03:36 31.50801 -105.95659 5921 ft 181 kts 353°
2026-04-24 03:36 31.52050 -105.95698 5916 ft 179 kts 348°
2026-04-24 03:37 31.53254 -105.95969 5912 ft 174 kts 334°
2026-04-24 03:37 31.54311 -105.96584 5914 ft 167 kts 319°
2026-04-24 03:37 31.55119 -105.97529 5916 ft 163 kts 301°
2026-04-24 03:37 31.55654 -105.98689 5915 ft 162 kts 297°
2026-04-24 03:38 31.56278 -105.99801 5908 ft 164 kts 302°
2026-04-24 03:38 31.56957 -106.00877 5910 ft 165 kts 304°
2026-04-24 03:38 31.57654 -106.01950 5918 ft 166 kts 304°
2026-04-24 03:38 31.58355 -106.03031 5929 ft 167 kts 304°
2026-04-24 03:39 31.59062 -106.04118 5940 ft 168 kts 304°
2026-04-24 03:39 31.59772 -106.05215 5941 ft 170 kts 306°
2026-04-24 03:39 31.60490 -106.06319 5955 ft 171 kts 306°
2026-04-24 03:39 31.61220 -106.07443 5958 ft 171 kts 307°
2026-04-24 03:40 31.61943 -106.08557 5958 ft 172 kts 306°
2026-04-24 03:40 31.62666 -106.09675 5972 ft 172 kts 307°
2026-04-24 03:40 31.63392 -106.10793 5983 ft 173 kts 307°
2026-04-24 03:40 31.64123 -106.11920 5972 ft 177 kts 306°
2026-04-24 03:41 31.64894 -106.13116 5980 ft 190 kts 306°
2026-04-24 03:41 31.65712 -106.14379 5990 ft 198 kts 306°
2026-04-24 03:41 31.66561 -106.15687 6001 ft 204 kts 306°
2026-04-24 03:41 31.67428 -106.17026 6009 ft 208 kts 306°
2026-04-24 03:42 31.68308 -106.18383 6012 ft 210 kts 306°
2026-04-24 03:42 31.69193 -106.19754 6026 ft 211 kts 306°
2026-04-24 03:42 31.70085 -106.21134 6037 ft 213 kts 307°
2026-04-24 03:42 31.70987 -106.22525 6047 ft 215 kts 307°
2026-04-24 03:43 31.71889 -106.23925 6058 ft 216 kts 307°
2026-04-24 03:43 31.72812 -106.25318 6094 ft 215 kts 311°
2026-04-24 03:43 31.73934 -106.26388 6070 ft 203 kts 322°
2026-04-24 03:43 31.75055 -106.27342 5953 ft 179 kts 321°
2026-04-24 03:44 31.75962 -106.28075 5942 ft 145 kts 323°
2026-04-24 03:44 31.76727 -106.28771 5790 ft 135 kts 317°
2026-04-24 03:44 31.77372 -106.29512 5622 ft 124 kts 311°
2026-04-24 03:44 31.77913 -106.30279 5398 ft 121 kts 307°
2026-04-24 03:45 31.78403 -106.31071 5178 ft 117 kts 306°
2026-04-24 03:45 31.78859 -106.31838 5031 ft 113 kts 304°
2026-04-24 03:45 31.79257 -106.32620 4832 ft 111 kts 299°
2026-04-24 03:45 31.79577 -106.33456 4610 ft 112 kts 294°
2026-04-24 03:46 31.79825 -106.34329 4384 ft 113 kts 289°
2026-04-24 03:46 31.80008 -106.35216 4155 ft 109 kts 281°
2026-04-24 03:46 31.80071 -106.36121 3976 ft 112 kts 275°
2026-04-24 03:46 31.80119 -106.36932 3942 ft 80 kts 271°
2026-04-24 03:47 31.80138 -106.37497 3944 ft 60 kts 274°
2026-04-24 03:47 31.80133 -106.37774 3944 ft 1 kts 179°
2026-04-24 03:47 31.80074 -106.37747 3943 ft 11 kts 185°
2026-04-24 03:47 31.79980 -106.37754 3943 ft 16 kts 184°
2026-04-24 03:48 31.79904 -106.37713 3943 ft 16 kts 109°
2026-04-24 03:48 31.79827 -106.37682 3943 ft 15 kts 182°
2026-04-24 03:48 31.79773 -106.37726 3943 ft 7 kts 262°
2026-04-24 03:48 31.79771 -106.37739 3943 ft 0 kts 262°